K4YY Weather Reports


Display with metric or nautical units.
time (UTC)temp
F
wind
direction
speed
MPH
gust
MPH
rain 1hr
in
rain 24hr
in
rain mn
in
humidity
%
barometer
mb
20260906124019 80 248 3.0 6.0 0.00 0.05 0.00 86 1011.3
20260906123019 79 248 3.0 7.0 0.00 0.05 0.00 86 1011.3
20260906122019 79 248 3.0 5.0 0.00 0.05 0.00 86 1011.2
20260906121039 79 248 2.0 4.0 0.00 0.05 0.00 87 1011.3
20260906120019 79 0.0 2.0 0.00 0.05 0.00 87 1011.5
20260906115019 79 0.0 0.0 0.00 0.05 0.00 87 1011.5
20260906114019 79 0.0 1.0 0.00 0.05 0.00 87 1011.4
20260906113019 79 0.0 3.0 0.00 0.05 0.00 87 1011.3
20260906112019 79 0.0 0.0 0.00 0.05 0.00 87 1011.2
20260906111019 79 225 1.0 2.0 0.00 0.05 0.00 87 1010.8
20260906110019 79 225 3.0 5.0 0.00 0.05 0.00 87 1010.6
20260906105019 79 225 3.0 5.0 0.00 0.05 0.00 87 1010.5
20260906104039 79 225 4.0 6.0 0.00 0.05 0.00 87 1010.3
20260906103019 79 225 4.0 7.0 0.00 0.05 0.00 87 1010.2
20260906102019 79 225 3.0 5.0 0.00 0.05 0.00 87 1010.2
20260906101019 79 225 4.0 7.0 0.00 0.05 0.00 87 1010.2
20260906100019 79 225 4.0 6.0 0.00 0.05 0.00 87 1010.2
20260906095019 79 225 3.0 5.0 0.00 0.05 0.00 87 1010.2
20260906094019 79 248 3.0 4.0 0.00 0.05 0.00 86 1010.2
20260906093019 79 248 2.0 4.0 0.00 0.05 0.00 86 1010.2
20260906092019 79 225 2.0 4.0 0.00 0.05 0.00 86 1010.2
20260906091019 79 225 2.0 4.0 0.00 0.05 0.00 86 1010.2
20260906090019 80 225 3.0 4.0 0.00 0.05 0.00 87 1010.2
20260906085019 79 225 4.0 5.0 0.00 0.05 0.00 86 1010.2
20260906084019 79 225 4.0 7.0 0.00 0.05 0.00 86 1010.0
20260906083039 79 225 3.0 5.0 0.00 0.05 0.00 86 1010.1
20260906082019 79 225 3.0 5.0 0.00 0.05 0.00 86 1010.0
20260906081019 80 248 3.0 4.0 0.00 0.05 0.00 86 1009.9
20260906080042 80 225 3.0 5.0 0.00 0.05 0.00 86 1009.9
20260906075019 80 203 2.0 4.0 0.00 0.05 0.00 85 1010.1
20260906074019 80 225 1.0 2.0 0.00 0.05 0.00 86 1010.2
20260906073039 80 225 2.0 3.0 0.00 0.05 0.00 85 1010.0
20260906072019 80 225 2.0 4.0 0.00 0.05 0.00 85 1010.0
20260906071019 80 248 2.0 5.0 0.00 0.05 0.00 85 1010.0
20260906070019 80 225 3.0 4.0 0.00 0.05 0.00 85 1010.0
20260906065019 80 225 2.0 3.0 0.00 0.05 0.00 85 1010.1
20260906064039 80 225 3.0 4.0 0.00 0.05 0.00 85 1010.0
20260906063039 80 248 2.0 3.0 0.00 0.05 0.00 85 1010.3
20260906062019 81 225 2.0 4.0 0.00 0.05 0.00 85 1010.4
20260906061019 81 248 2.0 4.0 0.00 0.05 0.00 85 1010.4
20260906060019 81 248 1.0 4.0 0.00 0.05 0.00 85 1010.6
20260906055019 81 225 2.0 4.0 0.00 0.05 0.00 85 1010.6
20260906054019 81 248 2.0 4.0 0.00 0.05 0.00 85 1010.8
20260906053019 81 225 3.0 5.0 0.00 0.05 0.00 85 1010.8
20260906052019 81 248 3.0 5.0 0.00 0.05 0.00 85 1010.6
20260906051019 81 225 3.0 5.0 0.00 0.05 0.00 85 1010.7
20260906050019 81 203 4.0 5.0 0.00 0.05 0.00 85 1010.8
20260906045039 81 203 3.0 7.0 0.00 0.05 0.00 85 1010.7
20260906044019 82 203 3.0 5.0 0.00 0.05 0.00 85 1010.7
20260906043019 82 203 3.0 6.0 0.00 0.05 0.00 86 1010.8
20260906042019 82 225 3.0 4.0 0.00 0.05 0.00 86 1011.0
20260906041039 82 180 2.0 3.0 0.00 0.05 0.00 86 1011.2
20260906040039 82 203 3.0 6.0 0.00 0.05 0.05 86 1011.2
20260906035019 82 203 3.0 7.0 0.00 0.05 0.05 86 1011.2
20260906034059 82 225 4.0 5.0 0.00 0.05 0.05 86 1011.3
20260906033019 83 225 4.0 6.0 0.00 0.05 0.05 86 1011.3
20260906032019 83 203 3.0 6.0 0.00 0.05 0.05 86 1011.3
20260906031019 83 203 4.0 6.0 0.00 0.05 0.05 86 1011.5
20260906030019 83 203 4.0 6.0 0.00 0.05 0.05 86 1011.7
20260906025019 82 0.0 1.0 0.00 0.05 0.05 85 1011.7
20260906024022 82 0.0 2.0 0.00 0.05 0.05 85 1011.6
20260906023019 83 180 1.0 3.0 0.00 0.05 0.05 85 1011.3
20260906022019 83 203 1.0 2.0 0.00 0.05 0.05 85 1011.4
20260906021039 83 180 2.0 4.0 0.00 0.05 0.05 84 1011.3
20260906020019 83 180 1.0 4.0 0.00 0.05 0.05 84 1011.3
20260906015019 83 180 2.0 7.0 0.00 0.05 0.05 83 1011.1
20260906014403 83 180 2.0 4.0 0.00 0.05 0.05 83 1011.0
20260906013025 83 180 1.0 4.0 0.00 0.05 0.05 82 1010.7
20260906012059 84 180 3.0 6.0 0.00 0.05 0.05 81 1010.4
20260906011019 84 203 2.0 4.0 0.00 0.05 0.05 81 1010.4
20260906010019 84 203 2.0 5.0 0.00 0.05 0.05 80 1010.5
20260906005021 84 180 2.0 5.0 0.00 0.05 0.05 79 1010.4
20260906004019 84 180 1.0 3.0 0.00 0.05 0.05 79 1010.4
20260906003019 84 180 1.0 4.0 0.00 0.05 0.05 79 1010.2
20260906002019 84 158 1.0 3.0 0.00 0.05 0.05 79 1009.9
20260906001033 84 180 2.0 4.0 0.00 0.05 0.05 79 1009.8
20260906000020 84 0.0 2.0 0.00 0.05 0.05 79 1009.8
20260905235019 84 0.0 0.0 0.00 0.05 0.05 80 1009.6
20260905234019 85 158 1.0 3.0 0.00 0.05 0.05 79 1009.8
20260905233839 85 0.0 2.0 0.00 0.05 0.05 79 1009.7
20260905232019 86 180 2.0 4.0 0.00 0.05 0.05 78 1009.7
20260905231019 86 180 2.0 5.0 0.00 0.05 0.05 77 1009.7
20260905230019 86 203 4.0 7.0 0.00 0.05 0.05 78 1009.9
20260905225019 86 180 3.0 7.0 0.00 0.26 0.05 78 1010.0
20260905224019 85 180 3.0 7.0 0.00 0.26 0.05 78 1010.2
20260905223019 86 203 4.0 7.0 0.00 0.26 0.05 76 1010.3
20260905222019 87 203 6.0 8.0 0.00 0.26 0.05 75 1010.5
20260905221039 88 203 2.0 4.0 0.00 0.26 0.05 74 1010.4
20260905220019 89 203 2.0 5.0 0.00 0.26 0.05 73 1010.3
20260905215039 89 203 3.0 6.0 0.00 0.45 0.05 72 1010.3
20260905214019 88 203 2.0 4.0 0.00 0.45 0.05 73 1010.3
20260905213019 88 203 3.0 5.0 0.00 0.45 0.05 73 1010.5
20260905212019 88 203 2.0 5.0 0.00 0.45 0.05 74 1010.6
20260905211019 87 203 3.0 6.0 0.00 0.45 0.05 74 1010.5
20260905210019 87 203 4.0 6.0 0.00 0.45 0.05 75 1010.5
20260905205019 87 203 5.0 7.0 0.00 0.45 0.05 74 1010.6
20260905204019 88 203 5.0 9.0 0.00 0.45 0.05 74 1010.6
20260905203020 88 203 5.0 8.0 0.00 0.45 0.05 73 1010.4
20260905202019 89 203 5.0 9.0 0.00 0.45 0.05 72 1010.4
20260905201019 89 203 1.0 3.0 0.00 0.45 0.05 70 1010.4
20260905200019 89 225 2.0 4.0 0.00 0.45 0.05 69 1010.7
20260905195019 89 270 3.0 7.0 0.00 0.45 0.05 68 1010.8
20260905194019 89 270 2.0 5.0 0.00 0.45 0.05 68 1010.9
20260905193019 90 293 2.0 6.0 0.00 0.45 0.05 67 1010.5
20260905192019 90 248 2.0 7.0 0.00 0.45 0.05 69 1010.8
20260905191019 89 293 3.0 7.0 0.00 0.45 0.05 70 1011.4
20260905190019 89 270 2.0 8.0 0.00 0.45 0.05 71 1011.3
20260905185019 88 270 2.0 6.0 0.00 0.45 0.05 74 1011.1
20260905184019 87 0 3.0 6.0 0.00 0.45 0.05 75 1011.3
20260905183039 87 23 2.0 5.0 0.00 0.45 0.05 75 1011.3
20260905182019 87 0 1.0 4.0 0.00 0.45 0.05 76 1011.5
20260905181019 86 203 1.0 3.0 0.01 0.45 0.05 76 1011.7
20260905180019 84 248 1.0 3.0 0.05 0.45 0.05 78 1011.9
20260905175019 83 270 2.0 4.0 0.05 0.45 0.05 80 1011.9
20260905174019 83 315 3.0 6.0 0.05 0.45 0.05 83 1012.0
20260905173019 83 0.0 2.0 0.05 0.45 0.05 83 1012.1
20260905172039 84 0.0 1.0 0.05 0.45 0.05 81 1012.4
20260905171019 85 338 4.0 8.0 0.03 0.43 0.03 78 1012.6
20260905170059 87 0 7.0 11.0 0.00 0.40 0.00 73 1012.5
20260905165019 86 293 2.0 5.0 0.00 0.40 0.00 75 1012.6
20260905164020 86 315 3.0 6.0 0.00 0.40 0.00 74 1013.0
20260905163019 87 315 3.0 12.0 0.00 0.40 0.00 73 1013.1
20260905162019 87 315 3.0 6.0 0.00 0.40 0.00 74 1013.1
20260905161019 86 0 2.0 7.0 0.00 0.40 0.00 75 1013.2
20260905160019 86 270 3.0 5.0 0.00 0.40 0.00 76 1013.4
20260905155019 85 225 3.0 6.0 0.00 0.40 0.00 79 1013.5
20260905154019 85 293 3.0 7.0 0.00 0.40 0.00 79 1013.5
20260905153020 84 315 3.0 8.0 0.00 0.40 0.00 81 1013.6
20260905152019 84 248 2.0 6.0 0.00 0.40 0.00 82 1013.8
20260905151019 83 338 2.0 4.0 0.00 0.40 0.00 82 1013.8
20260905150039 83 338 4.0 7.0 0.00 0.40 0.00 82 1013.9
20260905145020 83 293 3.0 6.0 0.00 0.40 0.00 82 1013.8
20260905144019 83 270 2.0 5.0 0.00 0.40 0.00 82 1013.7
20260905143020 83 225 3.0 6.0 0.00 0.40 0.00 83 1013.8
20260905142019 82 270 3.0 6.0 0.00 0.40 0.00 84 1013.8
20260905141040 82 225 1.0 4.0 0.00 0.40 0.00 85 1013.7
20260905140020 81 248 2.0 5.0 0.00 0.40 0.00 86 1013.8
20260905135020 81 315 1.0 3.0 0.00 0.40 0.00 88 1013.6
20260905134020 80 248 2.0 5.0 0.00 0.40 0.00 88 1013.5
20260905133020 80 225 1.0 3.0 0.00 0.40 0.00 89 1013.6
20260905132020 80 0.0 2.0 0.00 0.40 0.00 89 1013.8
20260905131020 79 225 2.0 3.0 0.00 0.40 0.00 90 1013.8
20260905130019 79 225 1.0 3.0 0.00 0.40 0.00 90 1013.7
20260905125020 78 225 1.0 3.0 0.00 0.40 0.00 90 1013.8